Lapse_Rate
5.3 5.7 6.4 6.3 6.0 6.2 6.5 6.9 6.8 6.9 6.7 6.7 6.8 6.8 6.9 7.0 7.0 6.9 7.0 7.1 7.0 7.1
6.2 6.4 6.6 6.6 6.5 6.6 7.0 7.0 7.2 7.2 7.2 7.0 7.0 6.9 7.1 7.4 7.3 7.0 7.0 7.2 7.4 7.5
6.2 6.6 6.7 6.6 6.4 6.5 6.6 6.8 7.1 7.4 7.2 7.1 7.1 7.0 7.1 7.1 7.2 7.2 7.1 7.4 7.5 7.2
6.9 7.0 6.6 7.0 6.9 6.9 6.5 6.8 6.9 7.0 7.3 7.1 6.9 6.9 7.0 7.1 7.0 7.2 7.1 7.4 7.3 7.1
6.8 7.0 7.0 6.7 6.8 6.8 6.9 7.0 6.7 6.9 7.1 6.9 6.7 6.9 7.1 6.7 7.2 7.1 7.1 7.3 7.1 7.1
7.4 7.2 7.0 6.9 6.8 6.6 6.7 6.7 7.2 7.1 7.0 7.0 6.9 7.4 7.2 6.6 6.8 7.2 7.1 7.2 7.0 7.1
7.6 7.4 7.2 7.3 7.1 7.3 7.1 6.9 6.8 6.9 6.9 6.8 7.1 7.3 7.3 6.7 6.8 7.2 7.3 7.0 7.0 7.0
7.4 7.1 7.1 7.2 7.2 7.1 6.9 6.7 6.7 7.0 7.0 6.8 6.9 6.9 6.8 6.9 6.7 6.9 7.1 7.0 6.8 6.9
7.5 7.2 7.3 7.0 6.9 6.8 7.0 6.9 6.9 6.9 6.9 6.7 6.7 7.0 6.8 6.9 6.5 6.5 7.0 7.0 6.8 6.8
7.5 7.3 7.1 7.0 6.8 6.7 6.8 6.9 6.6 6.8 6.8 6.6 6.9 6.9 6.8 6.8 6.8 6.1 6.9 6.9 6.8 6.7
7.5 7.2 7.0 7.0 7.0 7.0 6.9 6.6 6.4 6.5 6.7 6.9 6.8 6.9 6.8 6.8 7.0 6.1 6.7 6.7 6.6 6.6
7.1 7.1 7.0 7.1 7.1 7.2 7.1 6.9 6.9 6.6 6.5 6.7 6.8 6.8 6.9 6.6 6.6 6.1 6.5 6.4 6.4 6.4
7.0 7.1 7.3 7.1 6.9 6.9 7.0 7.0 6.8 6.5 6.4 6.6 6.7 6.9 6.7 6.5 6.4 5.8 6.1 6.2 6.2 6.3
7.4 7.3 7.1 7.3 6.8 6.7 6.8 6.5 6.4 6.4 6.4 6.5 6.5 6.3 6.3 6.4 6.0 5.8 5.9 6.1 6.0 6.1
Wind_Speed
11 8 8 8 6 5 4 4 6 5 7 8 9 8 8 4 4 5 5 6 5 4
16 11 9 9 8 6 6 5 5 6 5 7 8 8 7 4 5 5 5 5 5 4
10 9 10 10 11 10 7 7 8 8 7 7 6 7 6 5 4 7 4 4 6 5
7 7 6 9 11 12 11 10 9 7 7 6 7 5 6 6 5 7 6 6 6 5
10 10 10 10 9 11 13 11 9 8 7 6 7 6 6 5 6 7 7 6 6 5
11 12 11 10 11 10 9 8 9 9 9 8 8 7 6 5 6 6 6 6 6 5
13 13 12 11 11 11 12 9 8 9 8 8 7 8 7 5 6 7 6 5 5 5
8 9 9 9 9 11 12 12 8 9 6 7 7 7 8 7 7 8 7 6 4 4
10 10 11 10 11 11 10 10 10 9 7 5 5 14 16 11 7 6 8 7 5 4
11 11 10 10 12 12 12 11 11 9 9 10 6 17 18 16 7 6 7 7 8 6
11 11 11 11 10 10 9 11 10 10 10 10 7 17 16 16 8 5 6 7 7 6
10 11 12 12 12 10 10 7 9 10 11 10 7 15 17 14 8 7 6 6 6 6
10 11 12 12 12 10 10 10 7 7 8 11 8 15 20 13 7 8 7 7 7 13
9 10 11 11 9 11 10 9 9 8 6 7 8 11 19 16 8 7 7 7 6 6
Wind_Direction
201 191 176 174 161 169 167 153 178 144 145 135 128 123 122 101 90 102 92 97 88 93
185 178 180 173 161 165 148 161 151 153 154 129 129 129 123 113 114 108 105 99 93 86
202 190 167 164 172 162 155 154 158 174 152 135 132 122 123 124 137 116 113 102 88 80
195 181 189 185 174 165 160 163 168 166 141 146 124 145 134 127 153 114 108 99 103 96
171 174 173 175 183 173 174 154 150 149 128 153 131 150 124 174 133 126 120 120 118 122
178 178 177 175 167 167 152 153 142 136 160 151 156 128 147 166 132 121 127 134 136 136
178 183 177 170 169 157 145 149 157 162 153 151 149 145 148 155 134 125 123 124 129 137
176 160 153 156 162 149 157 154 161 135 126 138 161 156 145 153 146 138 126 118 124 120
163 171 165 161 159 151 151 149 144 134 129 183 173 161 155 150 142 149 136 135 131 150
166 166 166 162 163 158 156 150 149 155 169 184 156 162 161 152 142 154 138 137 134 125
170 173 162 163 162 149 154 153 157 169 177 167 165 162 163 156 133 145 138 147 136 136
172 164 161 161 156 147 147 151 168 172 161 156 156 167 166 156 140 155 149 144 138 150
168 163 165 161 158 154 150 156 159 159 161 157 152 172 171 161 146 151 160 152 166 177
163 159 158 151 150 149 152 156 161 157 148 151 153 172 178 169 161 164 164 169 173 182